Вернуться в каталог

COSMOS 1275 DEB

АктивенPO
NORAD 42129·DEBRIS·🇷🇺 Russia

Запущен Jun 4, 1981 с Plesetsk Cosmodrome

Loading…

Ближайшие Пролёты (ближайшие 24 часа)

TLE

СвежийSource: Space-Track

Эпоха: Sep 13, 2026, 07:17 UTC

1 42129U 81053QR  26256.30389235  .00000885  00000-0  67439-3 0  9992
2 42129  82.8379 276.9743 0061480  35.6727 324.8522 13.91698837609976

Отслеживайте COSMOS 1275 DEB в реальном времени с AllMySat

Download on the App Store